Time,TemperatureF,DewpointF,PressureIn,WindDirection,WindDirectionDegrees,WindSpeedMPH,WindSpeedGustMPH,Humidity,HourlyPrecipIn,Conditions,Clouds,dailyrainin,SoftwareType,DateUTC
2013-10-11 00:23:00,51.0,50.0,30.05,SE,131,0.0,0.0,98,0.00,,,0.00,,2013-10-11 05:23:00,
2013-10-11 00:43:00,51.0,50.0,30.05,SE,131,0.0,0.0,98,0.00,,,0.00,,2013-10-11 05:43:00,
2013-10-11 00:52:00,52.0,52.0,30.05,SE,131,0.0,0.0,99,0.00,,,0.00,,2013-10-11 05:52:00,
2013-10-11 01:12:00,52.0,52.0,30.05,SE,131,0.0,0.0,99,0.00,,,0.00,,2013-10-11 06:12:00,
2013-10-11 01:22:00,53.0,53.0,30.05,SE,131,0.0,0.0,99,0.00,,,0.00,,2013-10-11 06:22:00,
2013-10-11 01:43:00,53.0,53.0,30.05,SE,131,0.0,0.0,99,0.00,,,0.00,,2013-10-11 06:43:00,
2013-10-11 01:52:00,53.0,53.0,30.05,SE,131,0.0,0.0,99,0.00,,,0.00,,2013-10-11 06:52:00,
2013-10-11 02:11:00,53.0,53.0,30.05,SE,131,0.0,0.0,99,0.00,,,0.00,,2013-10-11 07:11:00,
2013-10-11 02:21:00,53.0,53.0,30.05,SE,131,0.0,0.0,99,0.00,,,0.00,,2013-10-11 07:21:00,
2013-10-11 02:42:00,53.0,53.0,30.05,SE,131,0.0,0.0,99,0.00,,,0.00,,2013-10-11 07:42:00,
2013-10-11 02:52:00,53.0,53.0,30.05,SE,131,0.0,0.0,99,0.00,,,0.00,,2013-10-11 07:52:00,
2013-10-11 03:22:00,52.0,52.0,30.04,SE,131,0.0,0.0,99,0.00,,,0.00,,2013-10-11 08:22:00,
2013-10-11 03:42:00,52.0,52.0,30.04,SE,131,0.0,0.0,99,0.01,,,0.01,,2013-10-11 08:42:00,
2013-10-11 03:52:00,51.0,50.0,30.05,SE,131,0.0,0.0,98,0.01,,,0.01,,2013-10-11 08:52:00,
2013-10-11 04:22:00,51.0,51.0,30.05,SE,131,0.0,0.0,99,0.00,,,0.01,,2013-10-11 09:22:00,
2013-10-11 04:43:00,51.0,51.0,30.05,SE,131,0.0,0.0,99,0.00,,,0.01,,2013-10-11 09:43:00,
2013-10-11 04:54:00,51.0,51.0,30.06,SE,131,0.0,0.0,99,0.00,,,0.01,,2013-10-11 09:54:00,
2013-10-11 05:12:00,52.0,52.0,30.06,SE,131,0.0,0.0,99,0.00,,,0.01,,2013-10-11 10:12:00,
2013-10-11 05:23:00,51.0,51.0,30.06,SE,131,0.0,0.0,99,0.00,,,0.01,,2013-10-11 10:23:00,
2013-10-11 05:53:00,51.0,51.0,30.06,SE,131,0.0,0.0,99,0.00,,,0.01,,2013-10-11 10:53:00,
2013-10-11 06:22:00,50.0,50.0,30.07,SE,131,0.0,0.0,99,0.00,,,0.01,,2013-10-11 11:22:00,
2013-10-11 06:52:00,50.0,50.0,30.07,SE,131,0.0,0.0,99,0.00,,,0.01,,2013-10-11 11:52:00,
2013-10-11 07:11:00,50.0,50.0,30.07,SE,131,0.0,0.0,99,0.00,,,0.01,,2013-10-11 12:11:00,
2013-10-11 07:22:00,50.0,50.0,30.07,SE,131,0.0,0.0,99,0.00,,,0.01,,2013-10-11 12:22:00,
2013-10-11 07:42:00,50.0,50.0,30.07,SE,133,0.0,1.0,99,0.00,,,0.01,,2013-10-11 12:42:00,
2013-10-11 07:52:00,50.0,50.0,30.06,South,177,0.0,0.0,99,0.00,,,0.01,,2013-10-11 12:52:00,
2013-10-11 08:12:00,50.0,50.0,30.06,South,177,0.0,0.0,99,0.00,,,0.01,,2013-10-11 13:12:00,
2013-10-11 08:21:00,51.0,51.0,30.06,SSE,153,0.0,0.0,99,0.00,,,0.01,,2013-10-11 13:21:00,
2013-10-11 08:42:00,52.0,52.0,30.06,ESE,119,0.0,3.0,99,0.00,,,0.01,,2013-10-11 13:42:00,
2013-10-11 08:53:00,54.0,54.0,30.07,SE,135,0.0,3.0,100,0.00,,,0.01,,2013-10-11 13:53:00,
2013-10-11 09:11:00,55.0,55.0,30.06,SE,139,1.0,4.0,100,0.00,,,0.01,,2013-10-11 14:11:00,
2013-10-11 09:22:00,57.0,57.0,30.07,ESE,119,1.0,3.0,99,0.00,,,0.01,,2013-10-11 14:22:00,
2013-10-11 09:52:00,61.0,56.0,30.06,ESE,113,1.0,7.0,85,0.00,,,0.01,,2013-10-11 14:52:00,
2013-10-11 10:22:00,64.0,57.0,30.06,South,171,3.0,8.0,78,0.00,,,0.01,,2013-10-11 15:22:00,
2013-10-11 10:44:00,65.0,57.0,30.06,SE,143,4.0,8.0,76,0.00,,,0.01,,2013-10-11 15:44:00,
2013-10-11 10:54:00,66.0,59.0,30.06,South,178,1.0,4.0,77,0.00,,,0.01,,2013-10-11 15:54:00,
2013-10-11 11:22:00,68.0,59.0,30.06,South,184,4.0,7.0,72,0.00,,,0.01,,2013-10-11 16:22:00,
2013-10-11 11:43:00,69.0,59.0,30.06,SE,142,2.0,7.0,71,0.00,,,0.01,,2013-10-11 16:43:00,
2013-10-11 11:53:00,70.0,59.0,30.06,SSE,152,4.0,9.0,67,0.00,,,0.01,,2013-10-11 16:53:00,
2013-10-11 12:22:00,71.0,58.0,30.05,SE,145,5.0,8.0,64,0.00,,,0.01,,2013-10-11 17:22:00,
2013-10-11 12:43:00,72.0,59.0,30.05,SE,139,3.0,7.0,64,0.00,,,0.01,,2013-10-11 17:43:00,
2013-10-11 12:53:00,72.0,59.0,30.04,SE,134,3.0,10.0,63,0.00,,,0.01,,2013-10-11 17:53:00,
2013-10-11 13:12:00,73.0,59.0,30.03,SSE,155,3.0,9.0,61,0.00,,,0.01,,2013-10-11 18:12:00,
2013-10-11 13:21:00,73.0,58.0,30.01,ENE,70,3.0,11.0,60,0.00,,,0.01,,2013-10-11 18:21:00,
2013-10-11 13:43:00,73.0,58.0,30.01,SE,145,5.0,10.0,60,0.00,,,0.01,,2013-10-11 18:43:00,
2013-10-11 13:53:00,73.0,57.0,30.01,ESE,110,4.0,8.0,58,0.00,,,0.01,,2013-10-11 18:53:00,
2013-10-11 14:11:00,73.0,56.0,30.00,ESE,104,6.0,10.0,56,0.00,,,0.01,,2013-10-11 19:11:00,
2013-10-11 14:21:00,73.0,55.0,29.99,SW,224,4.0,13.0,54,0.00,,,0.01,,2013-10-11 19:21:00,
2013-10-11 14:42:00,73.0,56.0,29.99,SSE,160,5.0,9.0,56,0.00,,,0.01,,2013-10-11 19:42:00,
2013-10-11 14:52:00,73.0,57.0,29.99,SSE,147,5.0,10.0,57,0.00,,,0.01,,2013-10-11 19:52:00,
2013-10-11 15:12:00,73.0,56.0,29.99,ESE,117,6.0,11.0,56,0.00,,,0.01,,2013-10-11 20:12:00,
2013-10-11 15:22:00,72.0,55.0,29.98,ESE,117,5.0,12.0,56,0.00,,,0.01,,2013-10-11 20:22:00,
2013-10-11 15:53:00,72.0,55.0,29.98,SSE,163,7.0,13.0,56,0.00,,,0.01,,2013-10-11 20:53:00,
2013-10-11 16:22:00,70.0,55.0,29.98,SSE,164,6.0,14.0,59,0.00,,,0.01,,2013-10-11 21:22:00,
2013-10-11 16:55:00,69.0,55.0,29.97,SSW,213,3.0,11.0,61,0.00,,,0.01,,2013-10-11 21:55:00,
2013-10-11 17:24:00,68.0,54.0,29.97,ESE,117,6.0,10.0,62,0.00,,,0.01,,2013-10-11 22:24:00,
2013-10-11 17:43:00,68.0,55.0,29.97,SE,137,3.0,8.0,63,0.00,,,0.01,,2013-10-11 22:43:00,
2013-10-11 17:54:00,67.0,54.0,29.96,SE,133,4.0,10.0,64,0.00,,,0.01,,2013-10-11 22:54:00,
2013-10-11 18:22:00,65.0,53.0,29.96,ESE,104,2.0,8.0,65,0.00,,,0.01,,2013-10-11 23:22:00,
2013-10-11 18:53:00,64.0,53.0,29.96,SSE,157,0.0,6.0,68,0.00,,,0.01,,2013-10-11 23:53:00,
2013-10-11 19:12:00,63.0,53.0,29.96,SE,130,1.0,3.0,70,0.00,,,0.01,,2013-10-12 00:12:00,
2013-10-11 19:22:00,62.0,54.0,29.96,ESE,107,0.0,2.0,74,0.00,,,0.01,,2013-10-12 00:22:00,
2013-10-11 19:53:00,61.0,53.0,29.96,ESE,107,2.0,4.0,76,0.00,,,0.01,,2013-10-12 00:53:00,
2013-10-11 20:22:00,60.0,53.0,29.96,SE,133,1.0,4.0,77,0.00,,,0.01,,2013-10-12 01:22:00,
2013-10-11 20:52:00,60.0,53.0,29.97,SSE,166,1.0,3.0,79,0.00,,,0.01,,2013-10-12 01:52:00,
2013-10-11 21:23:00,59.0,54.0,29.97,South,174,0.0,2.0,82,0.00,,,0.01,,2013-10-12 02:23:00,
2013-10-11 21:52:00,57.0,53.0,29.97,South,174,0.0,1.0,86,0.00,,,0.01,,2013-10-12 02:52:00,
2013-10-11 22:23:00,57.0,53.0,29.97,SE,145,0.0,1.0,86,0.00,,,0.01,,2013-10-12 03:23:00,
2013-10-11 22:54:00,56.0,52.0,29.97,SE,145,0.0,1.0,87,0.00,,,0.01,,2013-10-12 03:54:00,
2013-10-11 23:24:00,56.0,52.0,29.97,South,184,0.0,1.0,88,0.00,,,0.01,,2013-10-12 04:24:00,
2013-10-11 23:54:00,58.0,54.0,29.96,SE,134,2.0,5.0,85,0.00,,,0.01,,2013-10-12 04:54:00,